ARIANE 5 DEB (SYLDA)

Satellite information

Favourite Embed

Satellite Type and Status

DEBRISIN ORBIT

Key statistics

Satellite ARIANE 5 DEB (SYLDA) at a glance.

Uptime

3079

Days in orbit

Revolutions

≈ 3.3

Per day

Orbit

MEO

Medium Earth Orbit

Inclination

6.2

Latest

Satellite identification and parameters

Extended collection of information and parameters for ARIANE 5 DEB (SYLDA).

Object identification

Identified? True

Debris? True

Object name: ARIANE 5 DEB (SYLDA)

International designator: 2017-029D

Object number (NORAD): 42743

Object ID (CCSDS): 42743

Country: FRANCE (FR)

Current information (Y/N): Y

RCS size: LARGE

Orbital parameters

Period: 433.749 minutes

Inclination: 6.2389 deg

SMA: 18981.015 km

Apoapsis: 24910.478 km

Periapsis: 295.282 km

RAAN: 356.2879 deg

Eccentricy: 0.6484162

Argument of periapsis: 300.9156 deg

Mean anomaly: 11.1297 deg

Mean motion: 3.31988937 rev/day

Mean motion (dot): 0.00021227 rev/day2

B* drag term: 0.0073108 1/REarth

Two-line elements (TLE)

Creation date: Nov. 3, 2025, 11:16 p.m.

Reference frame: TEME

Reference center: EARTH

Epoch: Nov. 3, 2025, 10:44 a.m. UTC

TLE line 0: 0 ARIANE 5 DEB (SYLDA)

TLE line 1: 1 42743U 17029D 25307.44756234 .00021227 00000-0 73108-2 0 9996

TLE line 2: 2 42743 6.2389 356.2879 6484162 300.9156 11.1297 3.31988937 81220

Live tracking on map

Real-time ground track for satellite ARIANE 5 DEB (SYLDA).

In-orbit conjunctions

A list of the most updated potential collisions computed for object ARIANE 5 DEB (SYLDA).

Target Orbit TCA Probability of collision Miss distance Type
SATCOM 3 OTHER 2024-12-10 22:31:13 TBA 3627.0 (m) PAYLOAD

Associated space launch

ViaSat-2 is a commercial communications satellite with an estimated capacity of 350 Gbit/s. The satellite will provide satellite internet to North America, parts of South America, the Caribbean, and the Atlantic Ocean. Eutelsat 172B is a communications satellite featuring a C-band, a Ku-band and a high throughput payload and all electric orbital raising. It is to reside in 172° East, where it will provide coverage of the Asia-Pacific.

ARIANE 5 DEB (SYLDA) was lifted into orbit during the mission ‘Ariane 5 ECA | ViaSat-2 & EUTELSAT 172B’, on board a Ariane 5 ECA space rocket.

The launch took place on June 1, 2017, 11:45 p.m. from Ariane Launch Area 3.

For more information about the launch, click the button.

Launch to space Ariane 5 ECA | ViaSat-2 & EUTELSAT 172B
Ariane 5 ECA | ViaSat-2 & EUTELSAT 172B

Agency: Eutelsat

Status: Launch Successful

Launch date: June 1, 2017, 11:45 p.m. UTC

Rocket: Ariane 5 ECA

Launch pad: Ariane Launch Area 3

Location: Guiana Space Centre, French Guiana

...

Latest news about this satellite

There are no fresh news available about this satellite. Check back as we update our databases every day.


Newsletter sign-up

Weekly statistics, charts and insights to help you stay on top of the space industry.